Location: Voyageurs National Park
(48.5020°N, 92.9292°W)
Time: 13:16:58
(UTC-05:00)

Amateur Radio Satellites - All Passes

Search period start: 01 October 2014 12:46
Search period end: 02 October 2014 12:46
Location: Voyageurs National Park, 48.5020°N, 92.9292°W

Satellite Date Start Highest point End Downlink Frequencies (MHz)
Time Altitude Azimuth
ITAMSAT 1 01 Oct 12:52:21 12:55:34 17° 55° (NE) 12:58:48 435.822 SSB
Uribyol 2 01 Oct 12:52:54 12:56:19 18° 56° (NE) 12:59:44 436.500 FM
AO-7 01 Oct 13:06:51 13:09:06 11° 28° (NNE) 13:11:21 29.400 - 29.500 MHz
Sapphire 01 Oct 13:13:49 13:16:57 15° 337° (NNW) 13:20:07 437.095 MHz 1200 baud AX-25 AFSK
JAS-1B 01 Oct 13:18:22 13:25:03 42° 65° (ENE) 13:30:50 435.800 - 435.900 CW/SSB
Oscar 16 01 Oct 13:18:40 13:23:43 54° 69° (ENE) 13:28:47 437.025 USB, Beacon 2401.1428
RS-15 01 Oct 13:22:46 13:32:20 35° 253° (WSW) 13:42:16 29.354 - 29.394 USB, Beacon 29.352 USB
AO-Echo 01 Oct 13:26:27 13:30:33 31° 64° (ENE) 13:34:42 ?
HO-68 01 Oct 13:28:00 13:30:42 13° 321° (NW) 13:33:24 435.675 MHz FM
AO-27 01 Oct 13:29:12 13:33:44 32° 63° (ENE) 13:38:18 436.795 MHz FM
FUNcube-1 01 Oct 13:32:11 13:33:58 12° 305° (NW) 13:35:45 145.950 - 145.970 MHz USB
PCSat 01 Oct 13:40:55 13:43:13 13° 345° (NNW) 13:45:32 145.825 MHz
Gurwin Techsat 1B 01 Oct 13:56:05 14:00:33 28° 62° (ENE) 14:05:02 435.225 FM
Oscar 19 01 Oct 14:16:47 14:21:52 53° 260° (W) 14:26:57 437.125 CW, 437.150 USB
TMSAT-1 01 Oct 14:24:06 14:28:52 36° 65° (ENE) 14:33:40 436.925 FM
MaSat-1 01 Oct 14:28:11 14:31:26 30° 49° (NE) 14:34:16 437.345 MHz
ITAMSAT 1 01 Oct 14:29:11 14:34:23 88° 255° (WSW) 14:39:37 435.822 SSB
Uribyol 2 01 Oct 14:29:58 14:35:09 82° 255° (WSW) 14:40:25 436.500 FM
Saudisat 1A 01 Oct 14:36:43 14:40:57 48° 122° (ESE) 14:45:13 436.775 MHz
Uosat F 01 Oct 14:50:33 14:52:47 13° 53° (NE) 14:55:02 435.120 FM
AO-7 01 Oct 14:52:15 14:59:25 34° 52° (NE) 15:06:34 29.400 - 29.500 MHz
Oscar 16 01 Oct 14:59:14 15:03:23 24° 268° (W) 15:07:33 437.025 USB, Beacon 2401.1428
Sapphire 01 Oct 15:01:40 15:02:53 11° 4° (N) 15:04:05 437.095 MHz 1200 baud AX-25 AFSK
AO-Echo 01 Oct 15:04:58 15:09:16 36° 263° (W) 15:13:39 ?
AO-27 01 Oct 15:08:15 15:13:08 42° 262° (W) 15:18:05 436.795 MHz FM
JAS-1B 01 Oct 15:08:49 15:15:45 41° 262° (W) 15:21:44 435.800 - 435.900 CW/SSB
PCSat 01 Oct 15:27:19 15:29:13 12° 12° (NNE) 15:31:07 145.825 MHz
Gurwin Techsat 1B 01 Oct 15:35:10 15:40:17 49° 261° (W) 15:45:28 435.225 FM
TMSAT-1 01 Oct 16:03:52 16:08:46 38° 263° (W) 16:13:42 436.925 FM
MaSat-1 01 Oct 16:05:03 16:07:39 20° 253° (WSW) 16:09:59 437.345 MHz
ITAMSAT 1 01 Oct 16:12:13 16:14:39 13° 273° (W) 16:17:06 435.822 SSB
Uribyol 2 01 Oct 16:13:23 16:15:28 12° 274° (W) 16:17:34 436.500 FM
Saudisat 1A 01 Oct 16:16:47 16:20:43 30° 322° (NW) 16:24:40 436.775 MHz
Uosat F 01 Oct 16:25:45 16:30:44 74° 72° (ENE) 16:35:45 435.120 FM
AO-7 01 Oct 16:43:23 16:51:40 72° 254° (WSW) 16:59:58 29.400 - 29.500 MHz
Sapphire 01 Oct 16:44:41 16:48:36 20° 30° (NNE) 16:52:30 437.095 MHz 1200 baud AX-25 AFSK
Oscar 10/S400 01 Oct 16:46:08 17:02:34 35° 152° (SSE) 17:35:28 145.825 - 145.975 CW/USB, Beacon 145.810 USB
Hamsat 01 Oct 16:57:25 17:00:28 19° 62° (ENE) 17:03:31 145.90 MHz
KITSAT 1 01 Oct 17:02:59 17:10:20 41° 111° (ESE) 17:17:42 435.175 FM
JAS-2 01 Oct 17:09:58 17:14:42 37° 64° (ENE) 17:19:47 435.800 - 435.900 CW/SSB, 435.910 FM
PCSat 01 Oct 17:10:04 17:14:38 26° 37° (NE) 17:19:10 145.825 MHz
Saudisat 1A 01 Oct 17:59:59 18:01:40 12° 345° (NNW) 18:03:21 436.775 MHz
Uosat F 01 Oct 18:06:59 18:10:05 16° 271° (W) 18:13:13 435.120 FM
OPAL 01 Oct 18:10:26 18:15:31 58° 104° (ESE) 18:20:28 ?
Sapphire 01 Oct 18:27:35 18:33:02 69° 53° (NE) 18:38:27 437.095 MHz 1200 baud AX-25 AFSK
Hamsat 01 Oct 18:31:50 18:36:05 53° 260° (W) 18:40:19 145.90 MHz
HO-68 01 Oct 18:40:03 18:43:13 14° 41° (NE) 18:46:24 435.675 MHz FM
AO-7 01 Oct 18:41:14 18:45:58 16° 275° (W) 18:50:43 29.400 - 29.500 MHz
SO-67 01 Oct 18:45:41 18:48:43 29° 69° (ENE) 18:51:46 435.3500 MHz FM
PCSat 01 Oct 18:53:11 18:58:38 77° 238° (WSW) 19:04:02 145.825 MHz
JAS-2 01 Oct 18:55:11 18:59:54 35° 265° (W) 19:04:55 435.800 - 435.900 CW/SSB, 435.910 FM
AO-40 01 Oct 18:55:29 00:36:37 32° 185° (S) 05:47:40 Beacon 2401.320
KITSAT 1 01 Oct 18:57:28 19:05:28 61° 314° (NW) 19:13:30 435.175 FM
STRAND 1 01 Oct 19:13:16 19:17:27 25° 93° (E) 19:21:37 ?
SO-50 01 Oct 19:40:03 19:44:18 43° 120° (ESE) 19:48:41 436.795 FM
Saudisat 1A 01 Oct 19:42:06 19:43:14 11° 10° (N) 19:44:22 436.775 MHz
OPAL 01 Oct 19:49:59 19:54:02 24° 303° (WNW) 19:58:01 ?
Sapphire 01 Oct 20:11:51 20:15:58 22° 252° (WSW) 20:20:04 437.095 MHz 1200 baud AX-25 AFSK
SO-67 01 Oct 20:19:09 20:21:47 20° 267° (W) 20:24:26 435.3500 MHz FM
HO-68 01 Oct 20:22:31 20:29:19 50° 63° (ENE) 20:36:09 435.675 MHz FM
PCSat 01 Oct 20:38:47 20:41:08 13° 257° (WSW) 20:43:28 145.825 MHz
STRAND 1 01 Oct 20:51:56 20:56:56 52° 291° (WNW) 21:01:55 ?
Oscar 11 01 Oct 20:52:39 20:55:55 21° 62° (ENE) 20:59:10 145.825 FM, Beacon 2401.500 USB
KITSAT 1 01 Oct 20:55:59 21:02:38 27° 340° (NNW) 21:09:18 435.175 FM
FUNcube-1 01 Oct 21:18:54 21:22:03 19° 60° (ENE) 21:25:14 145.950 - 145.970 MHz USB
Saudisat 1A 01 Oct 21:20:42 21:24:22 24° 34° (NE) 21:28:00 436.775 MHz
SO-50 01 Oct 21:20:48 21:24:58 35° 321° (NW) 21:29:17 436.795 FM
UKube-1 01 Oct 21:21:41 21:25:51 49° 70° (ENE) 21:30:04 145.840 MHz, 145.915 MHz
UOSAT-12 01 Oct 21:43:47 21:48:21 62° 124° (SE) 21:53:02 437.025 FM, 437.400 FM
ZACube-1 01 Oct 22:02:46 22:07:05 44° 69° (ENE) 22:11:30 437.345 MHz
HO-68 01 Oct 22:10:34 22:17:10 40° 263° (W) 22:23:51 435.675 MHz FM
Oscar 11 01 Oct 22:27:33 22:31:47 49° 261° (W) 22:36:03 145.825 FM, Beacon 2401.500 USB
ISS 01 Oct 22:52:12 22:55:17 36° 146° (SSE) 22:58:23 145.800 FM
FUNcube-1 01 Oct 22:53:27 22:57:58 64° 259° (W) 23:02:35 145.950 - 145.970 MHz USB
KITSAT 1 01 Oct 22:54:50 23:01:04 23° 10° (N) 23:07:18 435.175 FM
UKube-1 01 Oct 22:59:10 23:02:20 20° 268° (W) 23:05:31 145.840 MHz, 145.915 MHz
Saudisat 1A 01 Oct 22:59:57 23:04:21 69° 235° (SW) 23:08:44 436.775 MHz
SO-50 01 Oct 23:04:34 23:06:55 14° 345° (NNW) 23:09:17 436.795 FM
UOSAT-12 01 Oct 23:24:48 23:28:52 28° 325° (NW) 23:33:00 437.025 FM, 437.400 FM
ZACube-1 01 Oct 23:39:57 23:43:41 24° 268° (W) 23:47:28 437.345 MHz
ISS 02 Oct 00:28:35 00:31:53 63° 345° (NNW) 00:35:12 145.800 FM
SO-50 02 Oct 00:47:37 00:49:31 12° 10° (N) 00:51:27 436.795 FM
KITSAT 1 02 Oct 00:51:08 00:58:49 44° 38° (NE) 01:06:27 435.175 FM
UOSAT-12 02 Oct 01:08:29 01:10:34 13° 348° (NNW) 01:12:39 437.025 FM, 437.400 FM
Oscar 16 02 Oct 01:28:07 01:30:46 14° 87° (E) 01:33:24 437.025 USB, Beacon 2401.1428
RS-15 02 Oct 01:39:47 01:48:52 31° 105° (ESE) 01:57:51 29.354 - 29.394 USB, Beacon 29.352 USB
ISS 02 Oct 02:05:38 02:08:53 48° 5° (N) 02:12:08 145.800 FM
Oscar 19 02 Oct 02:24:31 02:29:24 41° 98° (E) 02:34:14 437.125 CW, 437.150 USB
SO-50 02 Oct 02:27:41 02:31:43 26° 34° (NNE) 02:35:46 436.795 FM
ITAMSAT 1 02 Oct 02:38:45 02:43:03 25° 93° (E) 02:47:20 435.822 SSB
Uribyol 2 02 Oct 02:39:19 02:43:44 27° 94° (E) 02:48:08 436.500 FM
KITSAT 1 02 Oct 02:46:41 02:54:38 63° 241° (WSW) 03:02:33 435.175 FM
JAS-1B 02 Oct 02:48:13 02:53:34 40° 98° (E) 02:59:14 435.800 - 435.900 CW/SSB
UOSAT-12 02 Oct 02:50:32 02:52:46 13° 13° (NNE) 02:54:59 437.025 FM, 437.400 FM
Oscar 16 02 Oct 03:05:39 03:10:51 88° 286° (WNW) 03:15:59 437.025 USB, Beacon 2401.1428
AO-Echo 02 Oct 03:07:16 03:12:11 53° 100° (E) 03:17:13 ?
AO-27 02 Oct 03:16:59 03:22:07 53° 100° (E) 03:27:14 436.795 MHz FM
ISS 02 Oct 03:42:24 03:45:43 74° 206° (SSW) 03:49:02 145.800 FM
Gurwin Techsat 1B 02 Oct 03:47:16 03:52:27 51° 100° (E) 03:57:37 435.225 FM
RS-15 02 Oct 03:48:59 04:00:00 84° 309° (NW) 04:11:03 29.354 - 29.394 USB, Beacon 29.352 USB
OPAL 02 Oct 03:51:25 03:55:43 27° 59° (ENE) 04:00:02 ?
Oscar 19 02 Oct 04:04:07 04:08:38 31° 297° (WNW) 04:13:06 437.125 CW, 437.150 USB
SO-50 02 Oct 04:07:57 04:12:45 74° 234° (SW) 04:17:36 436.795 FM
TMSAT-1 02 Oct 04:15:13 04:20:31 66° 102° (ESE) 04:25:48 436.925 FM
ITAMSAT 1 02 Oct 04:17:46 04:22:50 51° 292° (WNW) 04:27:53 435.822 SSB
Uribyol 2 02 Oct 04:18:25 04:23:27 48° 292° (WNW) 04:28:26 436.500 FM
UOSAT-12 02 Oct 04:30:09 04:34:23 31° 37° (NE) 04:38:35 437.025 FM, 437.400 FM
Uosat F 02 Oct 04:30:44 04:34:00 17° 90° (E) 04:37:15 435.120 FM
JAS-1B 02 Oct 04:39:13 04:44:16 34° 297° (WNW) 04:49:32 435.800 - 435.900 CW/SSB
AO-7 02 Oct 04:40:56 04:48:10 32° 94° (E) 04:55:22 29.400 - 29.500 MHz
KITSAT 1 02 Oct 04:44:43 04:48:26 14° 262° (W) 04:52:08 435.175 FM
Oscar 16 02 Oct 04:46:28 04:49:29 16° 305° (NW) 04:52:29 437.025 USB, Beacon 2401.1428
AO-Echo 02 Oct 04:46:39 04:50:40 25° 298° (WNW) 04:54:46 ?
AO-27 02 Oct 04:57:04 05:01:21 26° 299° (WNW) 05:05:37 436.795 MHz FM
ISS 02 Oct 05:19:55 05:21:58 15° 223° (SW) 05:24:01 145.800 FM
Gurwin Techsat 1B 02 Oct 05:27:44 05:32:10 28° 298° (WNW) 05:36:36 435.225 FM
OPAL 02 Oct 05:29:13 05:34:19 53° 257° (WSW) 05:39:26 ?
MaSat-1 02 Oct 05:50:05 05:54:44 50° 114° (ESE) 05:59:07 437.345 MHz
SO-50 02 Oct 05:50:50 05:52:32 12° 252° (WSW) 05:54:14 436.795 FM
TMSAT-1 02 Oct 05:55:59 05:59:59 22° 301° (WNW) 06:03:59 436.925 FM
JAS-2 02 Oct 05:57:51 06:03:33 29° 93° (E) 06:09:45 435.800 - 435.900 CW/SSB, 435.910 FM
RS-15 02 Oct 06:03:57 06:14:03 40° 339° (NNW) 06:24:16 29.354 - 29.394 USB, Beacon 29.352 USB
Uosat F 02 Oct 06:08:17 06:13:20 72° 288° (WNW) 06:18:21 435.120 FM
UOSAT-12 02 Oct 06:10:11 06:14:48 54° 237° (WSW) 06:19:21 437.025 FM, 437.400 FM
Hamsat 02 Oct 06:14:23 06:17:34 21° 92° (E) 06:20:43 145.90 MHz
STRAND 1 02 Oct 06:32:43 06:37:38 51° 69° (ENE) 06:42:35 ?
AO-7 02 Oct 06:33:20 06:41:34 69° 295° (WNW) 06:49:46 29.400 - 29.500 MHz
MaSat-1 02 Oct 07:27:18 07:31:23 28° 312° (NW) 07:35:12 437.345 MHz
SO-67 02 Oct 07:38:26 07:41:07 21° 93° (E) 07:43:48 435.3500 MHz FM
JAS-2 02 Oct 07:42:28 07:48:57 65° 290° (WNW) 07:56:12 435.800 - 435.900 CW/SSB, 435.910 FM
Uosat F 02 Oct 07:49:04 07:51:15 13° 307° (NW) 07:53:27 435.120 FM
Hamsat 02 Oct 07:49:44 07:53:45 43° 290° (WNW) 07:57:42 145.90 MHz
STRAND 1 02 Oct 08:12:59 08:17:06 24° 267° (W) 08:21:16 ?
RS-15 02 Oct 08:20:06 08:29:59 36° 13° (NNE) 08:40:06 29.354 - 29.394 USB, Beacon 29.352 USB
AO-7 02 Oct 08:27:17 08:32:58 21° 318° (NW) 08:38:41 29.400 - 29.500 MHz
SO-67 02 Oct 09:11:09 09:14:10 29° 291° (WNW) 09:17:11 435.3500 MHz FM
Sapphire 02 Oct 09:13:56 09:18:27 28° 110° (ESE) 09:22:59 437.095 MHz 1200 baud AX-25 AFSK
JAS-2 02 Oct 09:29:20 09:33:02 16° 308° (NW) 09:36:55 435.800 - 435.900 CW/SSB, 435.910 FM
HO-68 02 Oct 09:33:26 09:39:55 35° 95° (E) 09:46:22 435.675 MHz FM
PCSat 02 Oct 09:38:35 09:43:42 46° 116° (ESE) 09:48:52 145.825 MHz
Oscar 11 02 Oct 10:11:48 10:15:16 23° 93° (E) 10:18:41 145.825 FM, Beacon 2401.500 USB
RS-15 02 Oct 10:33:41 10:44:43 68° 44° (NE) 10:56:09 29.354 - 29.394 USB, Beacon 29.352 USB
FUNcube-1 02 Oct 10:39:39 10:43:05 21° 91° (E) 10:46:26 145.950 - 145.970 MHz USB
UKube-1 02 Oct 10:42:03 10:46:21 53° 101° (E) 10:50:37 145.840 MHz, 145.915 MHz
Sapphire 02 Oct 10:56:14 11:01:33 57° 310° (NW) 11:06:56 437.095 MHz 1200 baud AX-25 AFSK
HO-68 02 Oct 11:20:57 11:27:56 56° 295° (WNW) 11:34:54 435.675 MHz FM
PCSat 02 Oct 11:22:13 11:27:15 38° 316° (NW) 11:32:19 145.825 MHz
ZACube-1 02 Oct 11:24:27 11:28:58 54° 100° (E) 11:33:21 437.345 MHz
Oscar 11 02 Oct 11:47:32 11:51:37 41° 291° (WNW) 11:55:40 145.825 FM, Beacon 2401.500 USB
JAS-1B 02 Oct 11:52:14 11:54:25 12° 48° (NE) 11:56:32 435.800 - 435.900 CW/SSB
Oscar 19 02 Oct 12:08:39 12:11:38 16° 55° (NE) 12:14:37 437.125 CW, 437.150 USB
FUNcube-1 02 Oct 12:15:20 12:19:46 50° 290° (WNW) 12:24:04 145.950 - 145.970 MHz USB
UKube-1 02 Oct 12:19:01 12:22:12 20° 299° (WNW) 12:25:22 145.840 MHz, 145.915 MHz
Uribyol 2 02 Oct 12:26:01 12:27:24 11° 50° (NE) 12:28:46 436.500 FM
ITAMSAT 1 02 Oct 12:26:11 12:26:56 10° 49° (NE) 12:27:41 435.822 SSB
